Location: Cussy
(47.0410°N, 4.6412°E)
Time: 14:42:40
(UTC+00:00)

CZ-4 R/B - Pass Details

Date: 30 November 2020
Orbit: 532 x 598 km, 97.7° (Epoch: 27 January)

Event Time Altitude Azimuth Distance (km) Brightness Sun altitude
Exits shadow 17:40:23 37° 69° (ENE) 885 1.8 -17.4°
Drops below altitude 10° 17:44:09 10° 2° (N) 1,887 3.9 -18.0°
Sets 17:46:26 0° 354° (N) 2,802 4.9 -18.4°
